Location: Township of Marena
(38.1747°N, 99.6798°W)
Time: 12:08:46
(UTC+00:00)

ADEOS Rocket - Pass Details

Date: 26 October 2020
Orbit: 859 x 1306 km, 98.7° (Epoch: 25 November)

Event Time Altitude Azimuth Distance (km) Brightness Sun altitude
Rises 09:52:31 0° 139° (SE) 3,459 6.2 -37.1°
Reaches altitude 10° 09:55:07 10° 129° (SE) 2,502 5.5 -36.6°
Maximum altitude 09:59:55 32° 68° (ENE) 1,435 4.3 -35.7°
Drops below altitude 10° 10:04:45 10° 7° (N) 2,528 5.3 -34.7°
Sets 10:07:24 0° 357° (N) 3,500 6.0 -34.2°
